Radiation Dose at Monitoring Post of Fukushima Daini Nuclear Power Station
Date,Time,MP-1(microSv/h),MP-2(microSv/h),MP-3(microSv/h),MP-4(microSv/h),MP-5(microSv/h),MP-6(microSv/h),MP-7(microSv/h),Wind Direction,Wind Velocity(m/s),Rain
2023/03/19,00:00,0.148,0.136,0.210,0.205,0.210,0.117,0.076,northwest,7.5,No
2023/03/19,00:10,0.149,0.134,0.210,0.206,0.209,0.118,0.076,northwest,7.6,No
2023/03/19,00:20,0.149,0.134,0.209,0.205,0.209,0.118,0.076,northwest,7.9,No
2023/03/19,00:30,0.149,0.133,0.209,0.205,0.210,0.118,0.076,northwest,7.0,No
2023/03/19,00:40,0.148,0.134,0.210,0.204,0.208,0.118,0.075,northwest,7.4,No
2023/03/19,00:50,0.148,0.134,0.210,0.205,0.209,0.118,0.075,northwest,7.8,No
2023/03/19,01:00,0.148,0.134,0.210,0.205,0.210,0.118,0.075,northwest,7.7,No
2023/03/19,01:10,0.149,0.134,0.209,0.205,0.208,0.118,0.077,northwest,7.2,No
2023/03/19,01:20,0.149,0.134,0.210,0.205,0.208,0.118,0.076,northwest,8.1,No
2023/03/19,01:30,0.149,0.134,0.210,0.206,0.209,0.117,0.076,northwest,8.1,No
2023/03/19,01:40,0.148,0.133,0.210,0.205,0.208,0.118,0.076,northwest,8.4,No
2023/03/19,01:50,0.149,0.134,0.210,0.206,0.210,0.118,0.076,northwest,6.6,No
2023/03/19,02:00,0.148,0.134,0.211,0.205,0.208,0.118,0.076,northwest,6.0,No
2023/03/19,02:10,0.149,0.134,0.209,0.204,0.209,0.118,0.076,north-northwest,5.4,No
2023/03/19,02:20,0.149,0.135,0.211,0.205,0.210,0.117,0.076,northwest,5.6,No
2023/03/19,02:30,0.149,0.135,0.211,0.205,0.208,0.117,0.076,northwest,5.4,No
2023/03/19,02:40,0.148,0.135,0.210,0.206,0.208,0.118,0.075,northwest,5.8,No
2023/03/19,02:50,0.149,0.134,0.210,0.205,0.210,0.117,0.075,northwest,6.1,No
2023/03/19,03:00,0.149,0.135,0.210,0.205,0.209,0.119,0.076,northwest,5.8,No
2023/03/19,03:10,0.149,0.135,0.209,0.206,0.210,0.117,0.076,northwest,6.6,No
2023/03/19,03:20,0.149,0.135,0.209,0.205,0.209,0.117,0.076,northwest,7.0,No
2023/03/19,03:30,0.150,0.134,0.210,0.205,0.210,0.117,0.076,northwest,8.1,No
2023/03/19,03:40,0.150,0.134,0.211,0.204,0.209,0.118,0.075,north-northwest,6.8,No
2023/03/19,03:50,0.149,0.133,0.210,0.205,0.208,0.118,0.076,north-northwest,6.5,No
2023/03/19,04:00,0.150,0.134,0.209,0.206,0.209,0.118,0.075,north-northwest,6.8,No
2023/03/19,04:10,0.149,0.134,0.210,0.206,0.210,0.118,0.077,north-northwest,7.0,No
2023/03/19,04:20,0.149,0.134,0.209,0.205,0.210,0.119,0.075,north-northwest,6.2,No
2023/03/19,04:30,0.150,0.135,0.210,0.206,0.210,0.118,0.076,north-northwest,5.3,No
2023/03/19,04:40,0.150,0.135,0.210,0.206,0.209,0.117,0.076,north-northwest,4.7,No
2023/03/19,04:50,0.149,0.134,0.210,0.206,0.210,0.118,0.076,north-northwest,5.0,No
2023/03/19,05:00,0.149,0.133,0.210,0.205,0.209,0.118,0.076,northwest,4.9,No
2023/03/19,05:10,0.149,0.135,0.210,0.206,0.209,0.118,0.076,northwest,9.2,No
2023/03/19,05:20,0.150,0.134,0.210,0.206,0.208,0.117,0.076,northwest,10.3,No
2023/03/19,05:30,0.150,0.133,0.210,0.205,0.208,0.118,0.076,northwest,9.6,No
2023/03/19,05:40,0.149,0.134,0.210,0.205,0.210,0.117,0.076,northwest,8.5,No
2023/03/19,05:50,0.150,0.134,0.209,0.205,0.209,0.119,0.075,northwest,7.1,No
2023/03/19,06:00,0.149,0.134,0.210,0.205,0.208,0.117,0.076,northwest,6.2,No
2023/03/19,06:10,0.149,0.134,0.210,0.206,0.209,0.119,0.076,northwest,6.3,No
2023/03/19,06:20,0.150,0.134,0.210,0.206,0.208,0.119,0.076,northwest,7.9,No
2023/03/19,06:30,0.150,0.135,0.210,0.205,0.208,0.119,0.075,northwest,8.5,No
2023/03/19,06:40,0.149,0.133,0.209,0.205,0.209,0.118,0.076,northwest,8.4,No
2023/03/19,06:50,0.149,0.136,0.210,0.206,0.208,0.118,0.075,northwest,7.4,No
2023/03/19,07:00,0.149,0.134,0.210,0.206,0.209,0.118,0.076,northwest,5.4,No
2023/03/19,07:10,0.150,0.135,0.209,0.206,0.210,0.118,0.076,northwest,7.0,No
2023/03/19,07:20,0.149,0.134,0.210,0.205,0.209,0.119,0.076,northwest,7.0,No
2023/03/19,07:30,0.150,0.135,0.210,0.205,0.209,0.118,0.075,northwest,5.5,No
2023/03/19,07:40,0.149,0.133,0.210,0.205,0.210,0.118,0.076,northwest,5.2,No
2023/03/19,07:50,0.150,0.134,0.208,0.205,0.210,0.117,0.075,northwest,4.5,No
2023/03/19,08:00,0.149,0.134,0.211,0.206,0.209,0.117,0.075,northwest,5.7,No
2023/03/19,08:10,0.149,0.133,0.209,0.204,0.209,0.118,0.076,northwest,6.3,No
2023/03/19,08:20,0.149,0.134,0.210,0.205,0.209,0.119,0.075,northwest,6.2,No
2023/03/19,08:30,0.150,0.134,0.209,0.206,0.210,0.118,0.076,northwest,5.0,No
2023/03/19,08:40,0.149,0.133,0.210,0.205,0.210,0.118,0.076,northwest,5.5,No
2023/03/19,08:50,0.149,0.134,0.209,0.207,0.211,0.119,0.076,north-northwest,5.7,No
2023/03/19,09:00,0.150,0.134,0.208,0.205,0.210,0.118,0.076,northwest,7.1,No
2023/03/19,09:10,0.149,0.133,0.209,0.206,0.210,0.118,0.076,northwest,7.9,No
2023/03/19,09:20,-,-,-,-,-,-,-,-,-,-
2023/03/19,09:30,0.148,0.134,0.211,0.206,0.208,0.118,0.076,northwest,6.6,No
2023/03/19,09:40,0.148,0.134,0.210,0.205,0.211,0.117,0.076,northwest,7.7,No
2023/03/19,09:50,0.149,0.134,0.211,0.205,0.209,0.118,0.076,northwest,5.8,No
2023/03/19,10:00,0.148,0.133,0.211,0.205,0.210,0.118,0.076,west-northwest,5.5,No
2023/03/19,10:10,0.150,0.134,0.210,0.205,0.210,0.118,0.076,west-northwest,5.1,No
2023/03/19,10:20,0.149,0.133,0.209,0.206,0.211,0.118,0.076,west,4.8,No
2023/03/19,10:30,0.150,0.134,0.210,0.205,0.209,0.120,0.077,west-northwest,3.5,No
2023/03/19,10:40,0.150,0.134,0.210,0.206,0.209,0.118,0.075,west,3.3,No
2023/03/19,10:50,0.149,0.134,0.210,0.205,0.210,0.118,0.076,north-northwest,3.5,No
2023/03/19,11:00,0.149,0.134,0.209,0.207,0.211,0.119,0.076,west-northwest,4.4,No
2023/03/19,11:10,0.150,0.134,0.211,0.206,0.209,0.119,0.077,west-northwest,5.2,No
2023/03/19,11:20,0.149,0.135,0.210,0.206,0.210,0.119,0.075,west-northwest,4.9,No
2023/03/19,11:30,0.150,0.135,0.211,0.207,0.209,0.119,0.077,west,3.1,No
2023/03/19,11:40,0.149,0.134,0.210,0.207,0.211,0.119,0.075,west,4.1,No
2023/03/19,11:50,0.148,0.134,0.210,0.207,0.210,0.119,0.076,west,3.4,No
2023/03/19,12:00,0.150,0.134,0.211,0.206,0.210,0.119,0.075,northwest,1.8,No
2023/03/19,12:10,0.148,0.135,0.209,0.208,0.211,0.119,0.076,southeast,2.7,No
2023/03/19,12:20,0.149,0.134,0.211,0.206,0.208,0.118,0.076,east,1.8,No
2023/03/19,12:30,0.149,0.135,0.209,0.208,0.211,0.118,0.077,east,4.1,No
2023/03/19,12:40,0.150,0.134,0.212,0.205,0.209,0.119,0.076,east,3.6,No
2023/03/19,12:50,0.149,0.135,0.210,0.208,0.211,0.120,0.076,east,3.4,No
2023/03/19,13:00,0.150,0.135,0.211,0.206,0.210,0.119,0.077,east,3.8,No
2023/03/19,13:10,0.151,0.134,0.212,0.206,0.211,0.119,0.076,southeast,3.5,No
2023/03/19,13:20,0.148,0.134,0.211,0.208,0.210,0.119,0.076,southeast,3.6,No
2023/03/19,13:30,0.151,0.135,0.211,0.206,0.209,0.119,0.076,east-southeast,2.8,No
2023/03/19,13:40,0.149,0.135,0.210,0.207,0.213,0.119,0.076,southeast,3.5,No
2023/03/19,13:50,0.149,0.135,0.212,0.206,0.210,0.120,0.077,southeast,3.9,No
2023/03/19,14:00,0.151,0.134,0.212,0.207,0.211,0.120,0.077,southeast,3.1,No
2023/03/19,14:10,0.149,0.135,0.212,0.206,0.210,0.119,0.077,southeast,3.3,No
2023/03/19,14:20,0.150,0.135,0.211,0.208,0.210,0.120,0.076,southeast,3.6,No
2023/03/19,14:30,0.150,0.135,0.211,0.207,0.211,0.119,0.076,southeast,3.5,No
2023/03/19,14:40,0.150,0.134,0.212,0.209,0.209,0.120,0.076,southeast,3.9,No
2023/03/19,14:50,0.150,0.135,0.212,0.208,0.212,0.120,0.076,southeast,4.2,No
2023/03/19,15:00,0.148,0.136,0.212,0.209,0.210,0.120,0.076,southeast,4.0,No
2023/03/19,15:10,0.150,0.134,0.211,0.208,0.211,0.119,0.076,southeast,3.7,No
2023/03/19,15:20,0.149,0.136,0.214,0.208,0.211,0.119,0.077,southeast,3.6,No
2023/03/19,15:30,0.150,0.135,0.213,0.209,0.213,0.119,0.077,south-southeast,3.9,No
2023/03/19,15:40,0.151,0.135,0.212,0.209,0.211,0.119,0.076,southeast,3.6,No
2023/03/19,15:50,0.150,0.135,0.214,0.209,0.212,0.119,0.077,southeast,3.2,No
2023/03/19,16:00,0.150,0.135,0.212,0.210,0.212,0.120,0.077,south-southeast,2.6,No
2023/03/19,16:10,0.150,0.135,0.213,0.209,0.210,0.119,0.077,southeast,2.8,No
2023/03/19,16:20,0.150,0.135,0.213,0.208,0.213,0.121,0.077,south-southeast,3.3,No
2023/03/19,16:30,0.151,0.136,0.214,0.209,0.210,0.120,0.076,south-southeast,4.4,No
2023/03/19,16:40,0.151,0.135,0.213,0.209,0.213,0.120,0.077,southeast,4.1,No
2023/03/19,16:50,0.150,0.136,0.213,0.208,0.210,0.120,0.077,south,3.8,No
2023/03/19,17:00,0.151,0.135,0.213,0.209,0.211,0.120,0.076,south-southeast,3.8,No
2023/03/19,17:10,0.151,0.135,0.212,0.209,0.211,0.121,0.076,south-southeast,4.5,No
2023/03/19,17:20,0.150,0.135,0.212,0.209,0.211,0.120,0.076,south,4.4,No
2023/03/19,17:30,0.151,0.135,0.213,0.209,0.212,0.120,0.076,south,4.6,No
2023/03/19,17:40,0.150,0.136,0.213,0.209,0.211,0.121,0.076,south-southeast,4.4,No
2023/03/19,17:50,0.151,0.135,0.214,0.209,0.212,0.121,0.077,south,3.0,No
2023/03/19,18:00,0.151,0.135,0.212,0.209,0.212,0.120,0.076,south,3.3,No
2023/03/19,18:10,0.152,0.135,0.213,0.210,0.211,0.119,0.076,south,5.0,No
2023/03/19,18:20,0.150,0.135,0.213,0.209,0.212,0.119,0.076,south,4.9,No
2023/03/19,18:30,0.151,0.135,0.213,0.209,0.212,0.120,0.076,south,4.0,No
2023/03/19,18:40,0.151,0.135,0.213,0.208,0.211,0.120,0.077,south,4.8,No
2023/03/19,18:50,0.150,0.135,0.213,0.209,0.212,0.120,0.077,south-southwest,3.9,No
2023/03/19,19:00,0.151,0.135,0.212,0.209,0.211,0.120,0.077,south-southwest,4.0,No
2023/03/19,19:10,0.151,0.135,0.213,0.209,0.211,0.120,0.076,south-southwest,3.4,No
2023/03/19,19:20,0.150,0.136,0.213,0.209,0.212,0.120,0.077,south-southwest,3.7,No
2023/03/19,19:30,0.150,0.136,0.212,0.210,0.211,0.120,0.076,south-southwest,2.6,No
2023/03/19,19:40,0.151,0.136,0.212,0.209,0.211,0.120,0.077,southwest,1.4,No
2023/03/19,19:50,0.151,0.137,0.214,0.209,0.211,0.120,0.077,west-southwest,1.1,No
2023/03/19,20:00,0.150,0.136,0.213,0.209,0.212,0.119,0.077,west,3.0,No
2023/03/19,20:10,0.151,0.136,0.213,0.210,0.211,0.120,0.077,west,3.1,No
2023/03/19,20:20,0.150,0.135,0.215,0.209,0.211,0.120,0.077,west,2.0,No
2023/03/19,20:30,0.151,0.135,0.214,0.208,0.211,0.120,0.076,west,2.6,No
2023/03/19,20:40,0.150,0.135,0.213,0.209,0.211,0.120,0.077,west,2.0,No
2023/03/19,20:50,0.150,0.136,0.213,0.209,0.210,0.120,0.077,west-northwest,3.2,No
2023/03/19,21:00,0.151,0.135,0.213,0.209,0.212,0.120,0.077,west-northwest,1.8,No
2023/03/19,21:10,0.152,0.134,0.213,0.209,0.211,0.120,0.076,west-northwest,2.3,No
2023/03/19,21:20,0.152,0.136,0.214,0.209,0.210,0.119,0.077,west-northwest,3.2,No
2023/03/19,21:30,0.151,0.136,0.213,0.209,0.211,0.121,0.077,west,2.3,No
2023/03/19,21:40,0.151,0.136,0.213,0.210,0.211,0.121,0.077,west-northwest,2.6,No
2023/03/19,21:50,0.152,0.136,0.214,0.210,0.211,0.120,0.077,west-northwest,3.7,No
2023/03/19,22:00,0.150,0.135,0.213,0.209,0.212,0.120,0.077,west-northwest,3.3,No
2023/03/19,22:10,0.151,0.136,0.213,0.208,0.211,0.120,0.077,west,4.0,No
2023/03/19,22:20,0.151,0.136,0.214,0.210,0.211,0.121,0.076,west,3.5,No
2023/03/19,22:30,0.151,0.135,0.213,0.209,0.212,0.120,0.077,west,2.2,No
2023/03/19,22:40,0.151,0.135,0.214,0.210,0.212,0.120,0.077,west,1.5,No
2023/03/19,22:50,0.151,0.136,0.213,0.209,0.210,0.120,0.078,-,CALM,No
2023/03/19,23:00,0.152,0.135,0.214,0.209,0.211,0.120,0.077,south-southwest,0.8,No
2023/03/19,23:10,0.151,0.136,0.214,0.209,0.212,0.121,0.077,-,CALM,No
2023/03/19,23:20,0.151,0.135,0.214,0.208,0.210,0.120,0.077,west,1.2,No
2023/03/19,23:30,0.151,0.135,0.213,0.209,0.211,0.121,0.078,west,3.2,No
2023/03/19,23:40,0.151,0.137,0.214,0.210,0.212,0.120,0.077,west,4.9,No
2023/03/19,23:50,0.151,0.136,0.214,0.210,0.211,0.120,0.077,west,6.2,No
